Location: Buttermere
(51.3333°N, 1.5167°W)
Time: 22:14:17
(UTC+00:00)

ATLAS 3B R/B - Pass Details

Date: 18 September 2020
Orbit: 1016 x 1179 km, 63.8° (Epoch: 28 October)

Event Time Altitude Azimuth Distance (km) Brightness Sun altitude
Rises 23:10:43 0° 312° (NW) 3,846 6.3 -36.2°
Reaches altitude 10° 23:13:44 10° 301° (WNW) 2,912 5.4 -36.4°
Enters shadow 23:17:17 23° 273° (W) 2,113 4.3 -36.5°
